Flag for United Kingdom Weather past 2 weeks in Inverness, Scotland, United Kingdom

Now
46 °F

Scattered clouds.


Feels Like: 40 °F
Forecast: 33 / 57 °F
Wind: 14 mph from Northeast

Location: Inverness / Dalcross

Current Time: Apr 19, 2015 at 7:05:45 PM

Latest Report: Apr 19, 2015 at 6:20 PM


Visibility: N/A

Pressure: 30.42 "Hg

Humidity: 82%

Dew point: 41 °F

Location of InvernessLocation

Historic Weather in Inverness — Graph

°F

Inverness temperature yesterday

Maximum temperature yesterday: 59 °F (at 12:50 PM)
Minimum temperature yesterday: 36 °F (at 6:20 AM)
Average temperature yesterday: 47 °F

Past Weeks' High & Low Weather Summary

 TemperatureHumidityPressure
High66 °F (Apr 5, 2:50 PM)100% (Apr 5, 3:50 AM)30.57 "Hg (Apr 5, 3:50 AM)
Low34 °F (Apr 6, 1:20 AM)22% (Apr 10, 2:50 PM)29.47 "Hg (Apr 11, 1:50 AM)
Average48 °F74%30.16 "Hg
* Reported Apr 4 5:20 PM — Apr 19 5:50 PM, Inverness, Weather by CustomWeather, © 2015

Note: Actual official high and low records may vary slightly from our data, if they occured in-between our weather recording intervals... More about our weather records

Advertising

Inverness weather history for previous 24 hours

 ConditionsComfort  
Time TempWeatherWind HumidityBarometerVisibility
5:50 PM
Sun, Apr 19
48 °FScattered clouds.15 mph76%30.42 "HgN/A
5:20 PM48 °FPartly sunny.15 mph76%30.42 "HgN/A
4:50 PM48 °FPartly sunny.13 mph76%30.45 "HgN/A
4:20 PM50 °FPartly sunny.13 mph76%30.45 "HgN/A
3:50 PM48 °FBroken clouds.13 mph82%30.45 "HgN/A
3:20 PM48 °FPartly sunny.13 mph82%30.45 "HgN/A
2:50 PM48 °FPartly sunny.13 mph76%30.45 "HgN/A
2:20 PM48 °FPartly sunny.12 mph76%30.45 "HgN/A
1:50 PM48 °FPartly sunny.12 mph76%30.45 "HgN/A
1:20 PM48 °FPartly sunny.10 mph76%30.48 "HgN/A
12:50 PM48 °FBroken clouds.8 mph82%30.48 "HgN/A
12:20 PM46 °FBroken clouds.5 mph87%30.48 "HgN/A
11:50 AM46 °FBroken clouds.3 mph87%30.48 "HgN/A
11:20 AM46 °FBroken clouds.5 mph87%30.48 "HgN/A
10:50 AM46 °FBroken clouds.3 mph87%30.51 "HgN/A
10:20 AM45 °FBroken clouds.3 mph87%30.48 "HgN/A
9:50 AM45 °FPartly sunny.2 mph87%30.48 "HgN/A
9:20 AM43 °FPartly sunny.3 mph93%30.48 "HgN/A
8:50 AM43 °FPartly sunny.2 mph93%30.48 "HgN/A
8:20 AM43 °FPartly sunny.2 mph93%30.51 "HgN/A
7:50 AM43 °FPartly sunny.No wind93%30.48 "HgN/A
7:20 AM43 °FPartly sunny.No wind93%30.48 "HgN/A
6:50 AM41 °FPassing clouds.No wind93%30.48 "HgN/A
6:20 AM43 °FPassing clouds.2 mph87%30.48 "HgN/A
5:50 AM41 °FOvercast.5 mph93%30.48 "HgN/A
5:20 AM39 °FLow clouds.3 mph100%30.48 "HgN/A
4:20 AM37 °FPassing clouds.No wind93%30.48 "HgN/A
3:50 AM36 °FPartly cloudy.No wind93%30.48 "HgN/A
3:20 AM34 °FPassing clouds.2 mph93%30.48 "HgN/A
2:50 AM36 °FChilly.No wind93%30.48 "HgN/A
2:20 AM36 °FChilly.No wind93%30.51 "HgN/A
1:50 AM36 °FChilly.2 mph93%30.51 "HgN/A
1:20 AM36 °FChilly.2 mph87%30.51 "HgN/A
12:50 AM36 °FChilly.2 mph93%30.51 "HgN/A
12:20 AM36 °FChilly.2 mph93%30.51 "HgN/A
11:50 PM
Sat, Apr 18
37 °FChilly.No wind87%30.51 "HgN/A
11:20 PM39 °FChilly.2 mph93%30.51 "HgN/A
10:50 PM39 °FClear.2 mph93%30.51 "Hg10 mi
10:20 PM41 °FClear.6 mph93%30.51 "Hg10 mi
9:50 PM43 °FClear.5 mph87%30.51 "Hg10 mi
9:20 PM45 °FSunny.6 mph87%30.51 "Hg10 mi
8:50 PM43 °FSunny.6 mph87%30.51 "Hg10 mi
8:20 PM46 °FSunny.5 mph82%30.48 "Hg10 mi
7:50 PM48 °FSunny.9 mph76%30.48 "Hg10 mi
7:20 PM48 °FSunny.10 mph76%30.48 "Hg10 mi
Weather by CustomWeather, © 2015

See weather overviewHow to use our weather pages